Location: The Saddle
(36.8333°N, 80.3417°W)
Time: 04:51:36
(UTC-04:00)

Vanguard 3 - Pass Details

Date: 01 March 2024
Orbit: 510 x 3234 km, 33.3° (Epoch: 24 April)

Event Time Altitude Azimuth Distance (km) Brightness Sun altitude
Rises 18:14:59 0° 226° (SW) 5,681 12.5 -0.6°
Reaches altitude 10° 18:18:22 10° 221° (SW) 4,986 12.0 -1.2°
Maximum altitude 18:33:30 54° 149° (SSE) 3,516 10.2 -4.3°
Drops below altitude 10° 18:52:20 10° 80° (E) 6,084 10.9 -8.0°
Enters shadow 18:53:06 - 80° (E) 6,229 11.0 -8.2°
